Wind_Speed
11 13 14 15 16 16 15 13 12 12 13 13 11 10 9 9 8 7 5 2 2 2 2 5 7 7 7 8 9 8 7 6 4 4 3 2 3 3 3 4 5 6 7 8 11 13 15 15 16 17 16 19 20 22 29 30 25 23 22 21 19 18 17 15 14 12 12 12 11 12 14 14 16 17 19 20 19 18 17 16 15 14 14 13 13
8 11 13 14 16 16 15 14 14 13 14 14 12 11 10 9 8 7 6 4 3 2 2 3 5 7 7 7 8 7 6 6 5 4 4 3 3 3 3 3 4 5 6 7 8 9 11 11 13 16 17 22 24 23 25 26 27 24 21 21 20 19 19 17 17 15 13 14 12 11 11 13 16 18 20 21 20 19 18 17 16 16 15 14 14
9 10 12 14 15 17 16 15 16 14 13 13 13 11 10 9 8 7 6 5 3 3 3 2 4 8 8 7 8 7 5 6 5 3 4 3 3 4 4 5 5 5 5 6 8 8 9 9 9 10 12 17 20 23 24 23 25 25 22 21 20 18 17 17 20 18 15 14 13 9 8 9 13 17 21 22 21 20 18 18 17 18 17 16 15
9 9 10 12 14 17 17 16 16 15 13 12 13 12 11 10 9 8 6 4 2 2 3 3 5 8 8 7 8 8 5 5 4 3 3 4 4 4 5 6 6 7 6 6 7 8 8 9 9 10 11 13 14 18 24 25 25 26 27 28 25 20 17 18 21 22 19 15 11 8 8 8 8 12 18 21 22 21 20 20 19 19 18 17 17
7 9 9 11 14 16 18 17 16 15 15 14 14 13 12 11 10 9 7 5 3 1 3 4 4 5 4 3 5 6 5 5 4 4 5 5 5 6 6 7 7 8 8 8 8 8 8 9 10 11 12 14 14 16 22 27 27 26 29 34 33 26 22 21 22 23 23 20 15 10 8 8 7 10 13 15 19 22 21 21 21 19 19 17 17
6 8 9 11 13 15 17 17 17 16 15 14 14 13 12 11 11 10 8 6 4 2 2 3 3 3 4 4 4 5 5 5 5 5 5 5 6 7 8 7 7 8 9 9 9 9 10 10 10 11 12 13 14 15 18 22 24 25 29 34 35 32 27 21 20 22 24 24 22 17 12 8 6 8 9 7 13 19 20 21 22 21 20 18 17
6 7 8 10 12 14 16 17 17 16 15 14 13 14 13 12 13 12 9 7 7 5 1 3 3 2 4 4 4 4 4 3 3 4 4 5 6 7 8 8 8 8 9 9 10 10 11 11 11 12 12 13 13 15 17 18 19 24 29 34 35 34 32 26 21 22 23 24 25 22 20 15 10 9 8 6 8 12 17 20 21 21 21 19 18
7 7 8 9 11 14 16 16 16 15 14 14 14 15 14 14 14 13 11 9 8 7 3 3 3 1 2 3 3 3 2 2 2 3 4 5 6 7 8 8 8 8 9 9 10 11 11 12 12 12 13 14 13 15 17 18 20 22 26 31 34 33 34 33 27 24 21 22 23 23 22 20 17 14 12 10 8 7 11 16 19 20 20 20 19
7 8 8 9 11 12 14 14 14 13 13 13 14 14 15 14 14 14 12 10 10 9 5 3 3 1 1 2 2 2 1 1 1 2 3 4 5 7 7 8 8 8 9 9 9 10 11 11 12 13 14 15 14 15 16 17 20 22 24 28 32 33 35 37 35 30 24 18 19 20 21 22 21 20 17 15 13 10 8 10 14 17 17 19 19
7 7 7 8 9 10 10 11 11 11 12 12 12 13 15 15 15 15 14 11 11 10 7 5 3 2 1 1 2 1 1 1 1 1 2 3 5 6 7 7 7 8 8 10 10 10 10 11 12 13 14 15 16 16 16 17 18 20 23 26 31 33 34 35 39 38 31 22 20 19 19 21 21 20 20 19 17 14 11 8 12 15 14 17 19
8 8 7 8 8 8 9 10 10 10 11 12 12 13 15 15 15 16 14 12 12 11 8 6 4 3 3 2 2 1 1 1 1 1 2 3 4 6 6 7 7 8 9 9 11 11 11 12 12 13 14 15 16 17 17 17 17 19 21 24 29 33 32 33 36 38 35 29 27 24 21 21 22 20 21 22 18 15 12 9 12 15 15 15 18
9 8 8 8 7 8 9 10 10 11 12 13 13 14 15 16 16 16 15 13 12 11 9 7 6 5 4 2 2 1 1 2 2 3 3 3 4 5 6 7 7 8 8 9 11 12 12 13 13 13 14 14 16 16 17 17 17 18 19 21 26 31 33 34 34 35 35 33 32 30 28 25 25 25 24 23 21 18 15 11 11 14 13 14 17
9 9 8 7 7 8 10 11 12 13 13 15 15 16 16 16 17 17 16 14 12 11 10 8 7 6 4 3 3 2 2 3 3 3 4 4 4 5 6 7 7 8 8 9 11 12 13 13 13 14 15 15 16 16 17 18 18 19 19 19 22 26 31 36 37 36 36 37 36 34 33 31 29 29 26 23 23 22 19 14 14 16 13 11 14
9 9 9 8 8 9 10 10 11 13 14 16 16 16 15 15 16 17 15 14 13 12 10 9 8 7 5 4 4 3 3 3 4 4 5 5 5 6 7 7 8 9 9 10 11 12 14 15 15 16 16 16 17 17 18 18 19 20 20 20 21 23 27 32 36 38 39 40 40 38 37 36 35 33 29 26 25 23 21 17 15 15 14 13 13
9 9 9 9 9 9 10 10 11 12 14 14 14 15 15 15 16 18 16 15 15 13 11 10 9 7 6 5 4 4 4 4 4 5 5 6 6 7 8 9 10 10 10 11 11 12 14 15 16 17 17 18 18 19 19 19 19 20 21 21 21 22 24 27 32 37 41 42 43 42 41 39 39 37 32 29 28 25 22 22 19 12 10 11 11
10 9 9 9 10 10 10 10 11 11 11 12 12 13 14 14 16 18 18 16 16 14 12 11 9 8 6 5 5 4 4 5 5 6 6 7 8 9 9 10 11 11 11 12 12 13 14 16 16 17 18 18 18 19 19 20 20 20 21 22 22 22 22 25 30 34 38 39 41 44 44 42 41 39 36 34 33 29 24 24 24 18 11 9 9
10 10 10 10 11 11 11 11 10 9 9 10 11 12 13 13 14 17 18 16 16 15 12 11 10 8 7 6 6 5 6 6 6 7 8 9 9 10 11 11 12 12 12 13 13 13 14 16 17 17 18 18 19 19 20 21 21 21 22 22 23 23 23 24 26 29 33 35 38 42 44 45 45 41 39 38 36 34 30 28 27 24 20 12 9
11 11 11 11 12 12 12 10 9 7 7 8 9 9 10 11 13 17 18 17 16 15 13 11 10 9 8 7 7 6 6 6 7 7 8 9 10 10 11 12 12 13 13 13 14 14 16 17 18 18 19 19 19 20 21 21 21 22 23 23 24 24 24 25 25 26 30 33 37 40 40 44 46 44 43 42 38 36 36 37 33 29 26 20 14
11 11 11 11 12 14 13 11 8 7 6 7 8 8 9 10 12 15 17 17 16 14 13 11 10 9 8 7 7 6 6 7 7 8 8 9 10 11 12 13 13 14 15 15 15 16 17 18 18 19 19 19 20 20 21 21 22 23 24 24 24 25 26 27 26 25 27 29 34 36 35 40 44 44 44 43 41 39 37 37 38 33 29 26 22
10 11 12 11 13 16 14 9 6 6 6 6 7 8 9 10 12 14 16 16 16 14 13 12 11 9 8 7 7 6 7 7 8 8 9 10 11 12 12 14 15 16 16 16 17 18 19 19 20 20 20 20 20 21 21 21 22 24 25 24 24 25 27 28 28 27 27 28 31 33 35 40 42 44 45 44 42 43 39 35 35 34 30 28 27
11 11 11 11 14 15 10 6 5 5 5 6 7 7 9 10 12 15 16 16 16 15 13 12 11 9 8 7 6 6 7 8 9 9 10 11 11 12 13 15 16 17 18 18 18 19 19 20 21 21 21 21 21 22 22 22 22 23 25 26 25 25 27 29 29 29 29 29 30 31 34 37 38 40 42 42 42 43 42 38 35 34 31 29 28
12 12 12 11 12 10 6 5 4 4 5 6 7 8 9 11 12 15 16 17 16 15 13 12 10 9 8 7 6 7 7 8 9 10 11 12 12 13 15 17 18 19 19 20 20 20 20 21 21 22 22 22 23 23 23 23 23 24 25 26 27 26 26 28 30 31 31 30 29 30 33 33 35 36 37 38 40 41 42 40 36 33 31 29 29
13 12 11 9 7 6 5 4 4 4 5 6 7 8 9 11 13 14 16 17 16 14 13 11 10 8 7 6 6 7 8 9 10 11 12 13 13 14 16 18 19 20 20 21 21 21 21 22 22 23 23 23 24 24 25 25 25 25 25 26 27 28 28 27 29 31 32 32 29 30 32 32 32 33 35 38 37 38 43 42 38 35 33 31 29
12 10 7 6 5 4 5 5 4 4 4 6 7 8 9 11 12 13 15 16 15 14 12 10 9 8 7 6 7 7 8 9 11 12 12 13 15 15 17 19 20 21 22 22 23 23 23 23 24 24 24 25 25 25 26 26 26 26 27 27 27 29 29 29 29 30 32 33 32 30 31 32 33 33 35 37 36 37 42 43 40 38 36 33 28
11 9 7 6 6 6 6 4 4 4 4 6 7 8 9 10 11 12 14 15 15 13 11 10 8 7 7 7 7 7 8 9 11 12 13 14 15 16 18 20 21 22 23 24 24 24 24 25 25 25 25 26 26 27 27 27 28 28 28 28 28 29 30 31 31 30 31 33 34 32 31 31 33 34 36 37 37 38 40 41 40 38 36 34 29
11 9 8 7 7 6 5 3 3 3 4 5 6 7 8 9 11 12 13 14 14 12 11 9 8 7 7 7 7 8 9 10 11 12 14 15 16 17 19 21 22 24 24 25 25 25 26 26 26 26 26 27 27 28 29 29 29 29 29 29 29 29 30 31 32 32 31 31 33 34 33 31 32 34 36 37 36 36 38 40 40 38 38 34 29
9 8 7 7 7 6 4 3 2 3 4 5 6 7 8 9 11 12 12 13 13 11 10 8 7 7 7 7 7 8 9 10 11 12 14 16 18 19 21 22 23 25 26 26 26 27 27 27 27 27 27 28 28 29 30 30 30 30 30 30 29 30 30 30 32 34 34 32 32 34 34 32 33 33 33 38 39 35 34 38 40 40 39 35 29
8 8 8 8 7 5 4 4 5 5 5 5 5 6 7 8 10 11 12 12 12 10 9 8 7 7 7 7 7 8 9 10 11 13 15 17 19 20 21 22 23 25 26 26 26 27 27 27 28 29 29 29 29 30 30 31 31 31 31 31 30 30 30 31 32 34 35 34 33 34 34 33 34 34 33 37 41 37 34 35 40 41 37 33 30
10 10 9 8 7 6 5 6 6 6 6 6 6 6 7 8 9 11 12 12 11 9 8 7 7 7 6 7 7 8 9 10 11 14 16 18 20 21 22 23 24 25 26 26 26 27 27 28 29 29 30 30 31 32 31 31 31 30 30 31 32 31 30 31 31 33 36 37 35 33 34 34 35 35 34 35 39 40 36 34 39 43 38 31 27
11 10 8 8 7 6 6 7 7 6 7 7 6 7 8 9 10 11 11 11 10 8 7 7 6 6 6 7 7 8 9 10 12 15 17 19 20 22 23 24 25 25 26 27 27 27 28 29 30 30 31 32 32 33 33 34 34 33 30 30 30 31 30 30 31 32 35 38 37 34 34 35 36 37 37 37 38 41 41 38 41 45 42 34 28
10 9 8 8 7 7 6 6 6 6 6 6 6 7 9 10 11 11 11 10 9 7 7 6 5 5 6 7 8 9 9 11 13 16 18 20 21 23 24 24 25 26 26 27 27 28 29 30 31 31 32 33 34 34 35 36 37 37 36 33 30 29 29 30 31 32 34 35 36 35 33 34 35 38 39 38 38 41 44 44 44 45 45 40 35
10 9 9 8 8 7 6 5 5 5 6 7 8 9 10 11 12 11 10 9 8 7 6 5 5 5 6 7 8 9 10 12 15 17 18 19 21 22 24 24 25 25 26 27 28 29 30 30 31 33 33 34 36 36 37 37 38 38 39 37 34 31 30 30 31 32 33 34 34 33 33 32 33 36 38 38 39 41 45 47 47 47 48 46 41
11 10 10 8 7 6 5 4 3 3 5 7 9 10 11 12 12 11 9 8 7 6 5 5 5 6 6 7 8 9 11 13 15 16 18 20 21 23 24 24 25 26 27 28 29 30 30 31 32 33 35 36 37 37 38 39 39 39 39 39 38 35 34 33 31 31 32 33 33 32 31 32 32 34 36 36 38 41 45 47 47 46 49 49 43
11 10 9 7 6 5 5 3 2 3 5 7 9 11 12 12 11 10 9 7 6 5 5 5 5 6 7 7 8 9 11 13 14 16 18 20 22 23 24 25 25 26 27 28 29 30 31 31 32 33 36 37 38 38 39 40 40 40 40 40 39 37 37 36 34 33 32 32 33 33 31 31 32 33 34 35 37 39 42 47 48 45 46 48 45
10 9 8 6 5 4 4 3 2 4 6 8 10 12 12 12 11 10 8 6 5 5 5 5 6 7 7 8 9 10 11 13 15 17 19 21 22 24 25 26 26 26 27 28 29 30 30 31 32 33 35 37 37 38 39 40 41 40 40 41 40 38 38 38 37 36 35 33 33 33 33 32 31 32 34 36 37 36 37 42 45 43 43 45 44
9 9 7 6 5 3 2 2 2 4 7 10 12 13 13 12 10 9 7 6 5 5 5 5 6 7 8 8 9 10 11 14 16 18 20 21 23 25 26 26 27 27 27 28 29 30 30 32 32 33 35 37 38 38 39 40 40 40 40 40 39 38 38 38 37 36 36 35 34 34 35 34 32 33 35 36 38 36 33 35 36 36 38 40 39
9 8 7 5 4 2 1 1 3 5 8 12 14 14 12 12 10 8 7 6 5 5 5 6 6 7 8 9 9 10 12 15 17 19 21 22 24 26 28 28 28 28 28 28 29 30 31 32 33 34 35 37 38 38 40 40 41 41 41 39 37 36 36 38 38 37 35 35 36 36 35 34 33 34 35 35 37 37 33 32 30 29 30 32 32
9 8 6 5 3 1 1 1 3 6 9 12 14 14 13 11 10 8 6 6 5 5 5 6 7 8 8 9 10 11 13 15 17 19 21 23 24 27 29 28 28 28 28 29 29 30 31 32 33 35 36 37 38 38 38 40 41 42 42 39 36 34 35 36 36 37 35 34 36 38 37 35 34 34 35 34 36 37 34 30 30 30 29 28 29
8 6 5 4 3 1 1 2 4 8 11 13 15 14 13 11 9 8 6 5 5 5 5 6 7 8 9 10 10 12 13 16 18 21 22 22 23 26 29 29 27 27 29 29 29 30 31 32 32 34 34 35 37 38 39 41 42 43 42 40 35 33 34 34 34 34 34 33 35 37 39 38 35 33 33 34 37 39 34 29 31 35 33 31 32
7 6 4 3 2 2 2 3 5 8 12 14 14 14 12 10 8 7 6 5 4 4 4 6 7 8 9 10 11 12 14 17 19 22 23 23 24 27 30 28 27 27 28 29 29 30 31 31 31 31 32 32 34 37 39 41 42 42 42 40 37 33 33 33 32 31 31 31 33 34 36 39 39 34 31 33 38 39 34 30 35 39 38 37 37
6 5 2 2 3 3 3 3 4 8 13 14 14 13 12 10 8 7 6 4 3 3 4 5 7 8 9 10 11 12 16 18 19 22 23 23 24 27 28 27 27 28 28 29 30 30 29 29 29 29 30 30 31 33 35 36 37 39 41 42 40 36 33 32 30 30 29 29 31 33 32 36 39 36 31 31 36 38 35 34 39 42 42 43 40
4 4 2 3 3 3 3 3 4 10 14 14 13 13 11 9 8 6 5 3 2 3 4 5 7 8 9 10 11 12 15 17 19 22 24 23 24 25 26 26 27 28 28 29 29 28 27 27 28 29 29 27 27 29 29 30 32 35 38 42 42 38 34 32 29 29 30 29 29 31 30 31 35 35 31 29 33 37 36 35 38 42 42 43 42
2 2 3 2 3 3 4 3 5 10 14 14 13 12 11 9 7 5 4 3 2 3 4 5 7 7 8 10 11 12 14 16 19 22 23 22 22 23 24 25 26 27 27 27 27 26 25 25 26 28 28 26 25 25 25 26 28 32 36 40 42 40 38 35 31 29 30 29 28 29 28 28 31 33 30 29 32 36 36 35 37 41 41 40 41
1 2 2 2 3 4 4 4 6 11 14 14 13 12 10 8 6 5 5 3 2 2 4 5 7 8 8 10 11 12 13 15 19 21 21 21 22 22 22 24 25 25 25 26 26 26 24 23 24 26 26 25 23 23 24 23 24 27 32 36 39 40 41 39 35 31 29 27 26 26 26 26 28 29 29 29 32 36 37 36 38 41 41 40 40
2 2 1 2 4 4 5 6 7 10 13 13 12 11 10 8 6 6 5 3 2 2 3 5 7 8 9 10 11 12 13 15 17 19 19 20 22 21 20 22 24 23 24 25 26 25 23 22 23 23 24 24 22 21 22 22 20 23 28 33 37 40 42 41 38 33 30 28 26 26 26 26 27 27 27 29 32 36 37 38 39 42 42 41 40
1 1 1 2 3 5 7 8 8 11 13 12 11 10 9 8 7 6 5 3 1 1 3 5 7 8 9 10 11 12 14 15 16 17 18 19 20 19 19 21 22 22 23 23 24 23 22 21 22 22 22 23 21 19 19 18 16 17 20 25 30 34 36 36 32 28 26 26 26 27 28 28 27 28 29 31 33 35 36 38 41 43 43 42 42
2 2 1 3 4 6 8 9 10 11 13 12 11 10 9 9 8 7 6 4 2 2 3 5 7 8 8 10 11 12 13 15 15 15 16 19 19 17 16 19 21 21 22 23 23 22 21 21 21 20 21 22 21 18 16 15 13 10 11 15 20 24 27 27 23 20 21 24 25 26 27 28 28 28 30 33 34 35 36 38 39 39 39 40 41
3 3 1 2 3 5 8 10 11 12 13 12 12 11 10 10 9 8 6 5 3 2 3 5 6 7 8 10 10 11 12 13 13 13 15 18 19 15 13 15 18 20 21 23 22 22 23 21 20 20 21 21 18 15 14 15 14 8 7 15 21 24 26 26 24 23 24 26 27 28 28 29 30 30 29 31 33 34 36 37 35 34 35 36 37
3 2 1 1 2 4 7 9 10 12 13 13 12 12 11 10 10 8 7 5 3 1 2 4 6 7 8 9 10 11 12 12 12 12 14 16 17 16 14 14 16 19 23 24 23 24 25 23 20 19 19 18 16 14 14 16 14 8 7 15 25 29 29 30 29 29 30 30 29 28 28 29 30 31 30 31 31 30 30 31 33 34 36 37 38
3 2 1 2 2 4 7 8 10 12 13 13 13 12 11 11 10 9 7 5 3 1 2 3 5 6 8 9 9 10 11 12 11 11 13 15 16 17 16 15 16 19 22 25 25 24 25 24 21 17 16 15 15 14 14 14 11 8 8 12 22 30 32 32 33 34 34 31 26 23 23 24 26 28 28 28 29 30 29 29 31 34 37 39 39
4 3 2 3 4 6 9 10 11 12 13 13 14 13 12 12 11 9 7 5 3 2 3 4 4 5 6 7 8 9 11 11 10 10 12 15 16 18 17 16 17 18 20 23 27 27 25 24 23 20 18 17 14 10 8 8 6 8 8 10 19 28 32 35 38 36 30 26 23 21 19 20 22 22 22 27 32 34 32 32 32 33 34 37 37
Wind_Direction
218 204 193 190 193 193 194 197 194 199 210 211 202 193 186 180 169 161 151 112 96 86 55 46 35 25 23 18 13 8 3 1 5 12 5 338 323 315 290 279 271 261 253 247 247 244 241 242 245 247 242 236 235 235 233 231 228 221 216 214 216 225 228 227 224 210 204 201 199 207 209 216 221 221 225 227 228 229 229 228 225 225 223 221 220
198 189 188 191 193 191 193 196 195 197 206 210 207 201 194 188 179 166 154 140 122 114 108 72 42 32 29 21 14 10 6 359 350 349 357 346 333 334 308 293 286 271 261 252 250 248 245 245 248 252 248 240 239 239 239 238 232 220 209 209 212 222 225 223 218 208 205 200 192 199 205 216 223 225 229 230 232 231 229 227 224 225 224 222 221
190 187 188 192 193 192 192 197 200 200 200 203 205 204 198 195 188 172 162 154 125 98 107 98 48 39 35 33 28 22 14 0 351 346 353 351 333 331 322 309 302 287 276 267 262 255 252 248 244 245 242 240 240 239 239 241 236 222 210 212 212 214 219 225 223 215 214 205 193 199 203 210 221 225 229 231 230 229 228 226 225 226 225 225 223
199 192 187 189 191 191 192 195 198 195 193 196 200 202 201 199 188 174 169 162 136 84 72 58 36 34 31 36 38 33 30 13 6 11 353 344 321 308 306 304 305 296 286 280 272 265 261 258 253 245 238 238 238 237 235 234 234 227 221 221 216 207 209 224 228 220 220 215 200 205 202 205 221 216 220 226 225 224 225 223 226 227 225 226 224
209 193 186 188 190 190 191 193 193 193 195 197 199 200 200 198 187 178 177 171 162 70 53 58 49 41 33 42 44 36 36 26 14 7 346 332 316 305 303 299 296 293 292 288 279 275 270 263 259 254 247 242 237 235 234 233 235 234 228 225 219 211 207 220 230 221 221 224 220 220 206 205 229 213 209 218 218 221 224 221 224 227 224 225 224
214 199 191 189 189 188 189 190 193 196 198 197 195 197 199 196 190 188 183 179 187 200 70 75 79 64 48 44 41 32 31 26 13 353 337 326 315 309 306 301 291 286 288 288 283 280 277 270 265 260 255 249 243 239 237 237 237 233 227 223 219 213 206 215 232 223 219 227 229 231 233 232 240 220 209 213 212 218 226 224 223 224 222 223 222
201 200 195 190 188 185 186 190 195 198 195 191 191 195 197 193 193 195 188 185 199 207 166 95 87 61 52 54 52 43 33 23 6 338 327 320 313 310 306 303 297 289 284 282 280 279 278 276 271 266 262 257 252 246 242 239 237 232 226 221 217 213 206 208 228 228 219 224 228 230 238 244 249 238 229 227 216 218 225 226 226 225 222 222 222
189 192 193 191 188 187 189 192 195 194 188 186 193 198 197 193 194 196 190 190 202 211 202 130 109 72 55 72 70 54 40 19 355 326 321 314 310 309 306 301 296 291 286 281 279 276 275 274 272 270 266 263 258 254 248 241 238 236 228 220 215 212 208 207 219 232 225 219 222 226 233 240 244 245 243 240 241 232 223 225 228 224 221 221 222
191 190 189 190 190 191 192 190 188 185 184 188 195 198 197 194 195 195 192 192 202 211 210 174 130 100 67 80 73 52 29 4 338 320 316 313 311 307 303 298 292 289 287 284 283 279 274 272 270 268 266 265 262 258 256 250 242 238 232 226 220 216 213 209 212 227 233 223 219 222 229 238 241 244 244 242 247 249 235 224 218 215 217 220 219
198 193 188 185 184 183 180 178 177 179 187 192 194 198 198 195 195 195 193 191 201 209 208 192 156 130 158 126 90 71 350 333 320 318 310 309 310 305 302 298 294 292 288 285 284 283 279 274 270 267 265 265 264 260 259 259 254 245 236 233 228 221 218 214 212 219 227 228 225 222 225 233 238 240 238 238 242 246 249 237 209 204 210 215 214
201 197 190 182 174 171 173 180 183 185 192 194 196 198 198 197 196 195 194 191 197 205 201 191 174 165 181 164 118 124 291 297 295 296 294 299 299 298 300 297 295 293 289 287 285 283 283 278 272 267 264 263 262 261 259 258 259 255 245 239 235 229 224 222 220 219 220 223 226 225 224 229 236 238 235 235 235 237 244 243 218 210 210 212 210
203 199 192 185 181 182 188 194 195 195 197 199 201 200 199 200 198 196 194 189 190 197 194 185 180 177 181 170 146 158 231 256 270 279 279 282 280 284 294 293 292 290 287 287 286 284 283 279 275 269 264 261 260 260 259 256 257 258 254 247 242 236 229 225 224 222 219 219 224 227 227 231 239 241 239 236 235 237 238 238 231 219 214 215 206
207 203 197 193 194 198 202 202 200 201 205 205 204 203 202 202 198 196 194 187 185 188 186 181 180 179 176 166 157 176 222 244 256 266 267 271 272 275 282 285 285 285 284 286 284 284 281 277 275 271 265 262 259 259 259 257 256 256 256 252 246 240 233 228 226 224 222 220 223 228 230 233 237 241 242 238 235 236 235 235 236 227 221 217 200
214 209 204 200 203 205 209 210 205 207 210 209 207 205 202 200 197 196 194 186 182 181 180 178 178 178 175 167 162 183 216 236 248 257 263 268 270 272 275 277 277 277 277 278 279 280 278 274 273 271 268 265 261 258 258 257 256 254 254 253 249 246 240 233 229 227 225 223 222 226 231 234 235 237 241 240 237 234 232 234 235 230 224 221 206
215 211 207 208 210 210 215 218 214 213 211 207 205 202 200 200 196 195 192 185 179 178 178 176 175 174 172 170 172 189 214 231 243 250 258 265 268 270 272 271 272 273 273 273 274 275 275 274 273 270 268 266 263 260 256 256 256 253 251 250 250 251 247 239 232 229 227 225 224 225 229 234 235 235 237 239 239 235 233 232 231 232 224 220 220
210 209 210 212 213 212 214 216 215 212 203 197 197 197 198 199 195 195 193 185 179 178 177 174 174 175 175 176 181 195 216 230 239 244 251 262 267 269 270 269 270 272 272 272 271 271 273 273 272 270 268 266 265 260 255 253 253 252 251 248 247 248 249 245 237 232 228 225 225 225 227 231 233 234 234 237 237 235 237 237 231 230 228 219 224
205 206 209 209 209 208 209 212 213 205 191 188 191 192 195 196 194 195 193 185 179 177 176 175 174 176 178 180 187 202 219 231 238 244 251 260 265 267 269 270 271 271 271 271 271 271 272 272 270 269 267 265 263 260 257 255 253 251 250 249 247 245 247 247 243 238 234 228 226 226 226 228 231 232 233 235 236 234 237 244 237 229 229 227 223
204 205 208 209 208 206 206 210 208 196 183 182 183 184 190 195 196 196 192 186 180 177 177 176 175 177 181 186 195 208 223 233 239 246 252 258 263 266 270 272 273 274 273 272 272 273 273 272 270 268 266 265 262 260 258 257 254 250 249 248 248 245 244 245 244 244 241 233 229 228 225 226 227 228 230 232 234 231 233 241 242 234 228 229 231
207 208 211 212 210 209 210 209 198 181 175 174 175 179 188 195 196 196 195 189 182 178 178 179 180 181 183 190 200 213 226 234 238 243 248 255 261 266 270 274 276 277 275 274 275 276 275 273 270 268 265 263 261 259 257 257 254 251 250 248 247 245 243 242 241 242 242 237 233 231 227 225 225 226 226 227 229 228 229 234 239 237 229 226 231
213 216 218 215 214 214 211 204 188 169 167 170 174 182 188 192 192 192 192 187 182 179 180 182 185 186 187 192 203 218 230 237 241 245 248 254 261 266 272 277 279 279 277 275 276 275 274 273 270 267 265 261 260 258 256 255 253 252 250 248 248 246 244 242 240 239 241 240 237 233 231 228 225 225 225 223 224 225 227 229 234 238 232 223 226
218 221 222 217 216 216 203 181 176 166 163 171 177 184 186 189 191 191 189 186 183 183 184 186 187 190 193 198 212 227 234 242 247 249 253 257 262 268 276 280 279 278 277 276 275 274 273 271 269 267 264 261 259 257 255 253 252 251 249 247 247 247 246 244 241 239 239 241 239 236 235 231 225 223 223 221 221 222 224 226 230 238 236 225 221
219 221 223 221 218 211 183 163 183 181 179 180 178 183 188 189 192 192 192 191 189 187 188 189 189 192 197 206 222 235 242 247 250 253 257 260 264 272 280 280 277 276 276 275 274 273 271 268 267 265 264 261 259 256 254 252 251 251 249 247 245 245 247 246 243 240 237 238 240 239 239 237 230 226 222 219 218 218 220 222 225 233 238 230 220
220 218 220 221 213 194 177 191 210 205 194 184 182 189 192 192 191 191 193 193 191 190 190 189 190 194 200 213 229 242 248 252 255 258 261 263 269 276 281 279 275 275 274 272 272 272 270 268 265 263 262 260 259 256 254 252 250 250 248 247 245 243 244 244 244 243 238 236 238 239 239 240 236 231 225 220 218 216 217 221 223 228 234 234 223
219 217 215 214 207 206 218 229 236 224 199 187 191 195 190 189 191 191 192 192 190 190 191 192 195 199 206 222 237 247 253 257 260 263 266 270 275 279 280 278 275 274 272 270 270 270 270 268 265 263 260 258 257 256 254 252 250 249 248 247 246 243 242 242 242 243 241 237 236 238 239 238 235 232 228 223 219 214 213 216 221 223 228 232 224
216 216 214 216 219 226 233 243 261 251 208 189 189 187 185 187 189 189 189 189 189 190 193 197 200 205 217 231 242 253 260 263 265 269 272 277 279 281 280 278 275 273 272 272 270 269 269 268 265 263 261 258 257 255 254 253 251 249 248 247 247 245 242 241 241 241 242 239 237 236 237 237 234 232 230 226 219 214 212 213 217 219 222 225 222
216 216 215 218 220 224 230 243 267 253 205 185 180 179 183 184 184 186 185 184 186 187 190 196 201 212 227 237 247 260 267 269 271 275 278 281 283 283 281 279 277 275 274 273 271 268 266 265 264 263 261 259 258 256 254 253 251 250 249 247 247 246 243 241 240 239 240 240 238 236 236 237 236 233 232 230 223 215 214 213 215 217 218 219 217
215 215 214 215 213 217 219 214 219 208 186 177 175 176 179 178 180 183 180 179 181 183 187 194 204 219 234 244 255 266 270 273 276 279 282 285 285 284 282 281 279 277 275 273 270 268 265 264 264 262 261 260 258 257 255 253 252 250 248 247 246 246 244 242 240 239 238 239 238 237 235 235 237 235 232 232 229 221 215 212 213 215 215 214 212
212 213 214 215 213 208 193 178 177 180 173 170 174 175 175 176 176 175 174 174 175 179 187 196 207 223 238 251 262 268 270 274 279 283 286 287 286 284 283 282 280 278 276 274 271 269 266 265 263 261 261 260 258 258 256 253 252 249 247 246 245 245 244 242 240 238 237 237 238 237 236 234 235 236 233 232 230 225 218 214 213 215 214 211 207
216 217 213 212 208 191 171 168 170 171 171 172 176 175 173 173 170 167 169 170 172 179 189 198 211 226 242 257 266 270 272 276 282 288 290 289 287 286 285 283 281 279 277 275 273 271 268 265 263 261 260 260 258 257 254 252 250 248 246 246 244 244 244 243 242 238 236 236 236 236 236 234 234 235 235 233 228 223 219 215 212 213 214 215 210
219 214 203 193 185 172 166 169 171 175 178 177 177 177 174 171 166 164 165 169 173 181 191 203 218 233 249 263 270 272 274 280 289 293 292 291 290 289 287 285 283 281 279 277 274 271 268 265 264 262 261 259 257 255 253 251 249 247 247 247 245 244 244 244 243 240 237 235 235 236 236 234 234 234 236 235 230 225 223 220 215 212 212 216 214
211 196 181 171 166 166 171 172 170 173 175 177 180 177 172 168 166 165 166 169 175 182 193 209 228 246 259 267 272 275 280 288 294 295 294 294 293 292 290 288 287 284 281 278 275 272 269 266 265 263 261 259 257 255 254 253 250 248 246 247 248 246 245 244 243 241 239 236 234 234 234 234 233 233 235 235 231 228 226 223 220 216 212 214 214
192 176 168 168 166 165 168 165 160 165 175 180 179 174 170 168 166 166 166 169 175 185 199 217 240 255 263 267 272 280 287 294 297 297 297 297 297 296 294 291 289 287 284 280 277 274 271 268 266 264 261 260 258 257 256 255 253 250 247 244 245 247 247 245 243 241 240 237 234 233 233 232 231 230 232 233 230 228 226 223 221 216 213 213 213
173 168 167 166 163 160 154 147 146 165 180 180 176 173 170 167 165 164 164 169 177 189 207 227 248 259 264 269 274 283 292 296 298 299 300 302 302 300 298 295 291 289 286 282 279 276 274 271 268 265 264 262 260 259 257 256 254 253 250 245 243 244 246 246 245 244 241 237 234 233 231 230 229 228 228 228 226 225 224 223 221 216 212 211 210
164 164 162 157 156 157 150 147 159 174 175 173 172 171 166 162 163 164 167 176 184 196 217 234 251 262 265 270 277 287 295 298 298 300 303 305 306 305 302 299 295 291 287 284 281 278 275 272 269 268 266 264 262 260 259 257 255 253 251 246 243 243 244 245 244 245 246 242 236 232 231 230 228 226 225 224 223 221 220 221 220 215 211 210 210
161 161 158 153 155 164 167 174 181 172 173 174 171 167 163 161 164 166 171 181 192 209 229 240 255 266 267 272 281 289 297 299 298 301 305 307 309 310 307 303 297 292 288 285 282 279 276 272 269 268 267 266 264 262 260 258 255 252 250 246 243 242 243 243 242 242 245 247 242 234 231 231 228 225 223 223 222 218 215 217 218 213 208 207 209
159 155 152 149 154 173 193 203 200 187 184 181 173 167 164 164 167 171 175 184 201 225 244 252 260 268 271 275 283 291 296 298 300 302 305 308 311 312 310 306 298 292 288 286 283 279 275 272 270 268 268 267 266 263 260 257 253 251 248 244 241 240 241 241 240 239 240 245 245 238 231 230 230 227 223 222 221 217 211 210 212 210 204 203 207
147 143 140 140 149 175 218 236 232 212 193 180 171 166 165 166 171 176 180 192 212 237 257 262 266 272 274 277 285 292 295 298 302 304 306 310 312 313 312 308 300 294 291 288 284 280 276 273 271 270 269 269 268 265 261 257 253 249 245 240 238 238 239 239 238 237 238 239 241 240 234 229 229 228 224 220 217 214 209 204 202 200 197 195 198
141 141 144 146 150 171 260 263 240 215 193 177 168 166 168 170 175 181 189 204 224 246 262 268 272 275 274 276 284 291 295 299 302 305 308 311 311 311 312 310 302 297 294 290 287 284 278 274 272 271 270 269 268 265 261 257 252 247 242 237 235 236 236 237 236 235 235 235 236 238 237 231 229 228 224 218 212 208 206 201 194 190 187 184 184
142 143 145 143 142 170 261 255 233 209 189 173 168 170 173 174 177 184 197 215 234 254 269 274 277 276 275 279 285 290 296 300 302 306 310 311 309 311 313 312 306 301 297 293 290 286 282 278 275 273 272 270 269 266 261 256 250 245 239 234 233 235 234 234 234 231 231 232 232 235 236 232 231 231 224 215 209 206 203 198 192 186 181 181 183
145 138 136 157 174 207 233 236 225 202 181 170 170 175 177 176 178 187 204 221 235 255 274 276 276 277 278 283 287 292 298 302 304 307 310 311 311 313 315 314 310 305 300 295 292 289 286 283 280 277 275 273 272 271 265 257 249 244 239 233 231 232 232 231 230 227 226 228 227 230 231 226 227 232 226 212 210 207 201 196 193 187 183 184 184
133 125 141 210 205 213 230 235 216 191 175 169 174 179 178 177 180 192 209 220 228 254 271 274 277 281 285 291 295 298 303 305 306 309 311 312 312 314 317 316 313 308 303 299 297 294 290 287 285 283 280 278 276 275 270 259 249 243 239 234 231 231 230 228 227 224 224 226 225 225 225 220 219 224 220 209 208 207 200 198 198 194 192 190 183
128 129 181 226 223 221 221 223 203 184 174 171 178 181 177 176 184 195 203 203 215 253 267 274 284 288 293 299 302 303 306 308 309 312 315 315 314 316 317 316 313 310 306 305 304 301 296 292 290 288 286 284 281 280 274 263 252 245 241 235 231 231 228 223 222 223 222 223 224 225 225 218 211 211 210 208 209 207 202 199 198 196 195 190 180
145 163 177 199 239 232 208 199 190 181 175 175 182 182 176 175 183 183 176 178 208 260 273 279 290 296 301 304 306 308 310 311 313 315 317 317 316 316 317 317 316 313 312 311 311 308 302 298 297 296 294 292 289 285 280 270 260 251 245 238 232 230 225 221 222 225 224 223 224 223 219 211 205 204 207 211 211 206 199 195 194 194 190 183 173
179 196 175 197 243 233 201 188 184 179 176 177 182 181 173 170 170 159 158 172 203 258 277 287 295 301 306 309 311 313 315 315 316 318 319 320 319 318 318 320 320 319 318 317 316 313 308 304 303 302 300 298 295 291 288 282 268 254 247 240 233 229 224 220 221 227 227 222 217 214 208 203 202 205 210 211 207 200 194 191 190 188 182 173 165
207 208 208 230 237 223 200 186 178 177 176 178 182 180 170 162 155 148 150 162 179 261 286 300 308 309 311 315 315 317 320 320 319 321 323 324 323 323 324 326 326 326 324 322 321 319 315 309 307 305 304 303 300 297 296 293 281 263 249 239 233 230 225 219 219 225 227 218 207 204 203 202 202 203 204 201 195 191 190 190 187 181 174 167 162
210 168 220 234 220 210 201 184 171 175 176 176 181 179 165 153 145 138 136 138 138 302 305 314 319 318 317 318 319 323 325 323 322 324 327 327 326 327 332 334 333 331 330 328 326 323 319 314 311 309 308 307 305 305 305 304 295 275 253 237 231 228 221 216 215 217 214 204 197 196 195 193 193 193 191 187 184 184 184 183 179 174 168 164 161
60 71 142 211 198 194 190 177 167 171 173 173 178 176 162 148 141 133 128 124 101 356 332 330 328 326 324 323 326 327 325 325 327 328 330 332 330 328 335 341 340 337 337 337 334 331 327 322 316 314 312 310 308 308 311 315 313 286 240 216 208 204 200 196 191 182 175 174 175 176 176 174 173 175 176 175 173 171 169 167 166 164 162 161 161
70 70 115 201 190 183 180 175 169 168 170 171 173 170 161 148 137 131 128 119 94 14 344 341 335 332 332 330 328 327 326 327 330 330 333 337 337 333 333 340 345 347 346 344 342 341 340 333 324 320 319 315 310 311 315 318 317 296 210 175 168 170 173 172 166 158 152 152 152 150 149 151 152 151 152 153 154 155 156 155 155 155 154 154 155
63 50 46 144 171 178 175 170 166 164 166 167 165 166 164 152 138 131 130 122 109 62 354 349 344 342 341 334 329 329 330 330 329 331 334 337 338 337 333 331 340 352 358 357 353 351 351 346 334 326 328 325 316 313 318 317 308 284 209 172 164 165 166 166 164 157 147 139 136 135 135 136 138 138 137 139 140 141 145 147 147 147 147 147 147
7 1 18 79 120 158 164 158 154 157 159 158 159 164 164 153 141 135 134 135 138 121 29 8 2 358 348 337 332 334 335 333 330 331 334 335 336 339 338 333 335 347 360 7 7 4 4 4 356 342 343 344 328 313 313 314 296 259 226 189 172 169 168 163 159 154 145 135 130 131 132 134 137 137 136 137 138 138 139 140 141 142 143 144 144
331 338 11 60 98 128 140 139 139 145 149 152 157 163 160 149 142 141 143 150 149 96 46 28 18 7 347 334 335 337 336 335 334 334 336 339 340 342 344 343 344 348 355 4 11 14 16 19 15 6 4 7 359 339 324 313 275 228 216 194 174 169 164 159 154 148 140 133 133 133 133 136 139 138 138 140 141 141 141 142 141 140 142 143 142
Height
792 796 799 802 805 808 811 813 814 816 817 818 819 821 821 822 823 823 824 824 825 826 826 826 826 825 825 825 825 825 824 824 824 824 824 824 823 823 823 823 823 822 823 823 823 823 823 824 824 825 827 827 828 828 829 830 832 832 833 835 836 836 837 837 839 840 840 840 842 843 844 845 846 847 848 848 848 848 849 849 849 850 850 850 851
790 794 797 800 803 805 808 810 812 814 815 816 818 819 820 821 822 822 823 824 824 825 825 825 825 825 825 825 825 824 824 824 824 824 823 823 823 823 823 823 823 822 822 822 822 822 823 823 823 823 824 825 825 826 827 829 830 830 830 831 833 834 834 835 837 838 838 837 839 841 842 844 845 845 846 846 846 846 847 847 847 847 847 848 849
789 792 795 798 800 802 805 807 810 811 813 815 816 817 818 819 821 821 822 823 823 824 824 824 824 824 824 824 824 824 824 823 823 823 823 823 823 823 823 823 823 822 822 821 821 821 821 822 822 822 823 823 823 824 825 826 827 827 827 828 831 832 833 834 834 835 835 835 836 837 838 840 842 842 843 843 843 844 844 844 844 844 845 845 846
788 790 792 795 797 800 802 804 807 809 811 813 814 816 817 818 819 819 820 821 822 822 822 823 822 822 822 822 822 823 823 823 822 823 823 823 823 823 823 823 822 822 821 821 820 820 820 820 821 821 822 822 822 822 823 824 824 824 825 826 828 829 831 832 832 833 834 833 833 833 833 835 836 836 837 839 839 841 841 841 842 842 842 843 843
785 787 789 792 794 797 799 802 804 806 809 811 812 813 815 816 817 818 819 820 820 821 821 821 821 821 821 821 822 821 822 823 823 823 823 822 822 822 822 822 822 821 820 820 819 819 819 819 819 819 820 820 820 820 820 820 820 821 822 823 824 826 828 830 830 830 831 831 829 829 829 831 830 829 831 835 836 837 837 838 839 839 840 840 841
784 785 787 789 791 794 797 799 802 804 806 808 810 811 813 815 815 816 817 818 819 820 820 820 820 821 821 821 821 821 821 822 823 823 823 822 822 822 822 821 821 821 820 819 819 818 818 817 817 817 818 818 818 818 817 817 817 818 819 819 821 823 825 828 828 828 829 829 828 827 826 826 825 824 826 829 831 834 835 835 836 836 837 838 838
783 784 784 786 789 792 794 797 799 801 804 806 808 809 811 813 813 814 816 817 818 818 818 819 819 820 820 820 820 820 821 821 822 823 822 822 822 821 821 821 820 820 819 818 818 817 817 816 816 816 815 815 815 815 815 815 815 815 816 816 817 819 821 824 826 827 827 827 826 826 825 824 824 823 823 824 826 829 831 832 833 833 835 835 835
781 783 783 785 787 789 792 794 797 799 802 803 805 807 809 811 811 812 814 815 816 817 817 817 818 819 819 819 819 820 820 821 821 822 822 821 821 821 820 820 819 819 818 818 817 817 816 816 815 814 814 813 813 813 812 812 812 812 813 814 814 816 818 819 823 825 824 823 823 824 825 824 824 822 821 821 821 822 825 828 830 831 832 833 833
778 780 782 783 785 788 790 793 795 798 799 801 803 805 807 808 809 810 812 813 814 815 816 816 816 817 818 818 818 819 819 819 820 820 821 820 820 820 819 819 818 818 817 817 816 816 815 815 814 813 813 812 811 811 810 810 810 810 811 812 812 813 815 816 818 821 822 821 821 822 823 824 823 822 821 820 819 818 819 821 826 828 829 830 831
776 777 779 782 784 787 789 791 794 796 797 800 801 803 805 806 808 809 810 812 812 813 814 814 815 816 817 817 817 818 818 818 819 819 819 819 819 819 819 818 817 817 816 816 815 815 814 813 813 812 812 811 810 809 809 808 807 808 808 808 809 810 812 813 813 815 818 819 820 820 821 822 822 820 819 819 818 818 816 815 820 824 825 826 827
774 776 778 781 784 786 789 790 792 794 796 798 800 801 803 804 805 807 808 810 811 811 812 813 814 814 815 815 815 816 817 817 818 818 818 818 818 818 817 817 816 816 815 814 814 813 813 812 811 811 810 809 808 808 807 806 806 805 805 805 806 807 808 810 811 811 813 815 817 818 818 818 819 817 816 817 817 817 816 814 815 819 820 822 824
771 774 776 779 782 784 787 789 791 793 794 795 797 799 800 802 803 805 807 808 809 810 811 811 812 813 813 814 813 814 816 816 816 816 816 816 816 816 816 815 815 814 814 813 813 812 812 811 810 809 808 807 806 806 805 805 804 803 803 803 803 803 804 806 807 808 809 811 812 814 815 815 816 815 814 815 816 815 815 814 812 814 816 817 819
770 772 774 777 780 782 784 786 788 790 791 793 794 796 797 799 801 803 805 806 807 808 809 810 811 812 812 812 812 813 814 814 815 815 815 815 815 814 814 813 813 812 812 811 811 811 810 809 808 807 806 805 804 804 803 802 802 802 801 801 800 800 801 801 803 804 806 806 808 811 812 812 813 813 813 813 814 814 814 813 811 810 811 813 815
769 770 772 774 777 779 781 783 785 787 788 789 791 793 795 797 799 801 803 804 805 806 808 809 809 810 810 810 810 811 812 813 813 813 813 813 813 812 812 811 811 810 809 809 809 809 808 807 806 805 804 804 802 802 800 800 799 799 799 798 798 798 798 798 799 800 802 802 804 807 808 809 810 811 812 812 812 812 812 812 810 807 808 810 811
767 768 770 772 774 777 779 780 782 784 785 787 789 790 792 794 796 798 800 802 803 804 806 807 807 808 808 808 808 809 811 811 811 811 811 811 811 810 810 809 808 808 807 806 806 806 805 804 803 803 802 801 800 800 798 797 797 796 796 795 795 795 795 795 796 797 798 799 800 802 804 805 806 808 809 809 809 809 809 809 809 807 807 809 809
765 767 769 771 772 775 777 778 779 781 783 784 786 788 789 791 793 795 798 799 800 802 803 804 805 806 806 806 807 807 808 809 809 809 809 809 808 808 807 807 806 805 804 804 803 803 802 802 801 800 799 798 798 797 796 795 794 793 792 792 792 792 792 792 793 794 794 795 796 798 799 801 802 805 806 807 806 806 807 807 808 807 806 808 808
763 765 766 768 770 772 774 775 777 778 780 782 783 785 787 789 791 793 795 796 798 799 801 802 803 804 804 804 805 805 806 806 807 807 806 806 806 806 805 804 804 803 802 801 800 800 800 799 798 797 796 795 795 794 793 792 792 791 789 789 788 789 789 789 789 789 790 791 792 794 795 796 798 801 802 803 803 804 806 806 806 805 804 803 804
761 762 764 765 767 769 771 773 775 776 778 780 781 783 785 787 789 790 792 794 795 797 798 800 800 802 802 802 803 803 804 804 804 804 804 804 804 803 803 802 802 801 800 799 798 797 797 796 795 794 793 792 792 791 790 789 789 787 786 786 785 785 785 785 786 786 785 787 788 789 791 792 794 796 797 798 800 802 804 804 804 804 803 801 799
758 759 761 762 764 766 768 771 773 774 776 778 780 781 783 785 786 788 790 791 793 794 796 797 798 799 800 800 801 801 802 802 802 802 802 802 801 801 801 800 800 799 798 797 796 795 794 793 792 791 790 790 789 788 787 787 786 784 783 782 782 782 781 781 781 782 782 783 783 785 786 786 788 790 791 794 796 798 800 801 802 802 800 799 798
756 757 758 759 762 764 766 769 771 773 775 777 779 780 781 783 784 786 788 789 791 792 794 795 796 797 798 798 799 799 800 800 799 799 799 799 799 799 798 798 797 797 796 795 794 793 792 791 789 789 788 787 786 785 784 784 783 781 780 779 778 778 777 777 777 777 778 779 778 779 780 781 783 785 786 788 791 793 795 796 798 800 798 797 797
754 755 756 757 759 761 765 768 770 772 774 775 777 778 780 781 782 784 786 787 788 790 792 793 794 795 795 796 797 797 797 797 797 797 797 796 796 796 796 795 795 794 793 792 791 790 789 788 787 785 784 784 783 782 781 781 779 778 777 776 775 774 773 773 773 773 773 774 774 775 775 776 778 779 780 783 785 788 791 792 794 796 795 794 795
752 753 754 755 757 760 764 766 769 771 772 774 775 776 778 779 780 782 783 785 786 788 789 791 791 792 793 794 794 795 795 795 795 794 794 794 794 793 793 793 792 791 790 789 788 786 786 785 783 782 781 780 779 778 778 777 776 775 773 772 771 771 770 769 769 768 768 769 770 770 770 771 773 774 775 777 779 781 785 787 789 791 793 792 791
749 751 752 754 756 760 762 764 767 768 770 772 773 774 776 777 778 779 781 782 784 785 787 788 789 790 791 792 792 792 793 792 792 792 791 791 791 790 790 789 788 787 786 785 784 783 782 781 780 779 777 776 775 774 774 773 772 771 770 769 768 767 766 766 765 764 764 765 765 765 766 767 769 769 769 771 773 775 778 781 783 786 789 789 788
747 749 752 754 756 759 760 762 764 766 767 769 771 772 773 774 776 777 778 780 782 783 785 786 787 788 789 789 790 790 790 790 790 789 789 788 787 786 786 786 785 784 783 782 781 779 779 777 776 775 773 772 771 770 770 769 768 767 766 765 764 763 762 762 761 761 761 761 761 760 761 763 764 765 766 767 768 769 772 775 778 781 784 785 785
746 749 751 753 755 756 758 759 761 763 765 767 768 770 771 772 774 775 776 778 780 781 783 784 785 786 786 787 788 788 788 787 787 787 786 785 784 783 783 782 781 780 779 778 777 776 775 773 772 771 769 768 767 766 765 764 763 763 762 761 760 759 758 757 757 757 756 756 756 756 757 758 759 760 761 763 762 763 766 769 772 775 779 780 780
745 747 750 752 753 754 755 758 760 761 763 765 766 768 769 770 772 773 775 776 778 779 781 782 783 784 784 785 785 785 785 785 785 784 783 782 781 780 779 779 778 776 775 774 773 772 771 769 768 767 766 764 763 762 760 759 759 758 758 757 756 755 754 753 752 752 752 751 751 752 752 753 754 754 755 757 757 758 760 763 766 769 772 775 775
743 745 748 749 751 753 754 756 759 760 762 763 764 766 767 769 770 771 773 774 776 778 779 780 781 782 782 783 783 783 783 783 782 781 780 779 778 777 776 775 774 773 771 770 768 768 766 765 764 762 761 760 759 757 756 755 754 754 753 752 751 751 749 748 747 746 747 747 746 747 747 748 748 748 749 750 752 754 755 757 760 763 766 768 769
741 743 745 746 749 751 752 755 758 759 760 761 763 764 765 767 768 769 771 772 774 776 777 778 779 779 780 780 780 781 780 780 779 778 778 777 775 774 773 772 771 769 767 765 764 763 762 761 759 758 757 756 754 753 752 750 750 749 749 748 747 746 745 743 742 742 741 741 741 742 742 742 743 743 744 745 747 750 751 752 755 758 761 762 763
738 740 742 744 746 748 751 754 756 757 759 760 761 763 764 765 766 767 769 771 772 774 775 776 777 777 778 778 778 778 777 777 776 775 775 774 773 772 770 768 767 765 763 762 760 759 758 756 755 753 752 751 749 748 746 746 745 745 744 743 742 742 741 739 738 737 736 736 736 737 737 737 737 738 740 741 743 745 746 747 749 752 756 758 758
735 737 739 742 744 747 749 752 753 755 757 758 759 761 762 763 765 766 768 769 771 772 773 774 775 775 776 776 776 775 775 774 774 773 772 771 770 768 766 764 763 761 759 758 756 755 753 751 750 749 747 746 744 741 740 741 741 740 740 739 738 737 737 735 734 732 731 730 731 732 732 732 733 734 736 737 739 741 742 743 745 746 750 754 756
732 735 738 741 743 746 747 749 751 753 755 756 757 759 760 762 763 765 766 768 769 770 771 772 773 773 773 773 773 772 772 771 771 770 770 768 767 765 762 760 759 757 755 754 752 750 748 747 745 744 742 740 738 736 735 735 735 736 736 736 735 733 732 731 730 728 726 725 726 727 727 728 729 730 731 732 734 737 738 740 742 743 746 750 752
731 735 738 740 742 744 746 747 749 751 753 754 756 757 759 760 762 763 765 766 767 768 769 770 770 771 771 770 770 770 769 769 768 768 767 765 764 762 760 757 755 754 752 750 748 746 744 742 740 738 736 734 732 730 730 730 730 730 732 732 732 730 728 727 725 724 722 721 721 721 722 723 723 724 726 728 730 732 734 737 738 740 743 746 747
731 733 736 738 740 742 744 746 748 749 751 752 754 755 757 758 760 762 763 765 766 766 767 768 768 768 768 768 767 767 766 766 766 765 764 763 761 759 757 755 752 750 748 746 743 741 739 737 735 733 731 728 726 725 725 725 725 725 726 727 727 726 725 723 721 720 718 717 716 716 717 717 717 719 721 723 724 727 730 733 735 736 739 741 743
730 732 734 737 739 741 744 745 747 748 750 751 753 754 755 757 759 760 762 763 764 764 765 765 766 766 765 765 765 764 764 764 763 762 761 760 759 757 755 752 750 747 745 742 739 737 734 732 730 728 725 722 720 719 719 719 719 720 721 722 722 722 720 718 717 716 714 713 712 711 711 711 712 713 715 717 719 721 725 728 730 732 735 737 739
729 731 733 736 738 740 742 744 746 747 749 750 751 753 754 756 757 759 760 761 762 762 763 763 763 763 763 763 762 762 761 761 761 760 758 757 756 754 752 749 746 744 741 738 735 732 729 727 725 723 720 716 714 713 713 712 712 713 715 716 716 716 714 713 711 711 709 708 708 707 706 706 707 708 709 711 713 716 720 723 726 728 730 734 738
728 731 733 735 737 739 741 743 744 746 747 748 750 751 753 755 756 757 758 759 760 760 761 761 761 761 761 760 760 759 759 758 758 757 756 754 753 751 749 746 743 740 737 734 731 727 724 721 719 717 714 710 707 707 706 705 706 707 708 709 709 709 708 707 705 705 704 704 703 702 702 702 702 702 704 706 709 712 716 719 722 725 728 731 735
728 731 733 735 737 739 740 742 744 745 745 746 748 750 752 753 755 756 757 758 758 759 759 759 759 759 759 758 758 757 756 755 755 754 753 752 750 748 746 743 740 736 733 729 725 722 719 716 713 711 708 704 701 700 699 698 698 700 701 702 702 702 701 700 699 699 699 698 698 697 697 697 697 698 700 702 705 709 712 714 718 722 725 728 731
728 731 732 734 737 738 740 742 742 743 744 745 747 749 751 752 753 754 755 756 756 757 757 757 757 757 757 756 756 755 754 753 752 752 751 749 748 745 743 740 736 732 728 724 720 717 714 711 708 705 702 698 694 692 692 691 690 692 693 694 695 695 694 693 693 693 693 692 692 691 692 692 693 694 696 698 701 705 708 710 713 717 722 725 728
727 730 731 734 736 738 740 741 741 742 743 744 746 748 750 751 752 753 754 754 755 755 756 756 756 755 755 754 754 753 752 750 750 749 748 746 744 742 739 736 732 728 723 719 716 712 709 705 702 698 695 692 688 684 684 683 682 683 685 687 688 688 687 686 686 687 687 687 687 687 687 688 689 691 692 694 697 701 704 706 709 713 718 722 725
726 729 731 733 736 737 738 739 739 740 742 743 746 747 748 749 750 752 753 753 754 754 754 755 754 754 753 752 751 751 749 748 747 746 745 743 741 738 735 731 728 724 720 716 712 708 704 699 696 692 688 685 682 677 675 674 674 676 678 680 681 681 679 680 680 681 681 681 682 682 681 683 686 688 689 691 694 698 700 702 704 708 713 717 722
725 729 731 733 734 735 736 737 738 739 740 743 745 746 747 748 749 751 752 752 753 754 754 753 753 752 752 750 749 749 747 746 746 744 742 741 739 736 732 728 724 721 717 712 708 704 699 693 689 686 682 679 676 671 668 666 667 669 670 672 674 673 673 674 675 675 675 675 676 676 676 678 681 684 686 688 692 695 697 699 701 705 709 714 719
726 729 731 732 733 734 735 736 737 738 739 742 744 745 746 747 749 750 751 752 753 753 752 752 752 751 750 749 748 747 746 745 744 742 740 738 736 733 730 726 722 718 714 709 704 699 694 689 684 681 677 673 670 667 663 661 661 661 662 664 665 666 668 669 669 669 669 669 670 671 672 674 677 680 684 687 690 693 696 698 700 704 709 712 715
726 728 730 731 732 733 734 735 736 737 738 741 743 744 744 746 748 749 751 752 752 752 751 751 750 749 749 748 747 746 744 743 741 739 738 736 734 731 728 724 720 715 710 705 700 696 691 685 679 676 672 669 666 662 659 656 655 655 655 656 657 659 662 663 663 663 663 664 666 667 669 671 675 678 682 685 688 691 694 697 700 704 708 710 713
726 728 728 731 732 731 733 734 735 736 738 740 742 742 744 746 747 749 750 751 751 751 751 750 749 748 747 746 745 744 743 741 739 738 736 734 732 729 726 722 718 713 708 703 698 693 688 682 676 672 668 665 662 658 655 652 650 648 648 649 650 652 655 657 658 659 660 661 663 665 666 669 673 677 680 683 687 690 693 696 699 702 707 710 712
726 727 728 730 730 730 732 733 734 736 737 739 741 742 743 745 747 749 750 750 750 750 750 749 748 746 745 745 743 742 741 739 738 736 734 733 730 727 724 721 717 712 707 702 697 692 686 680 675 670 666 662 659 655 651 648 645 643 642 643 644 646 649 652 654 656 657 659 660 662 665 668 671 675 678 682 685 688 691 694 698 701 705 709 712
726 726 728 728 728 730 731 731 733 735 737 738 741 742 743 745 747 748 749 749 749 749 748 748 746 745 744 743 742 741 739 737 736 735 733 731 729 726 723 720 716 711 706 701 696 692 686 680 674 669 664 660 657 653 649 645 642 640 638 637 639 641 645 649 652 653 654 656 658 661 663 665 669 673 677 680 684 688 691 694 697 700 703 706 710
725 726 727 727 727 728 729 730 732 734 735 738 740 741 743 745 746 747 748 748 748 748 747 746 745 744 743 742 741 740 738 736 734 734 733 730 728 725 723 719 715 710 705 701 696 691 685 679 674 669 664 660 656 652 649 645 642 639 637 635 636 638 642 646 649 651 652 654 657 660 661 664 668 673 677 680 683 687 691 695 698 701 703 707 710
725 726 726 725 725 726 727 728 730 732 734 737 739 741 743 744 745 747 747 747 748 747 746 745 745 744 742 741 740 739 737 735 734 733 731 729 726 724 722 719 715 711 706 701 695 690 684 679 674 669 664 659 655 652 649 645 643 641 638 636 635 637 640 643 646 649 652 654 657 659 662 666 670 674 678 682 685 688 692 696 699 702 705 709 713
725 726 726 724 724 725 725 727 729 731 734 736 738 740 742 743 745 746 746 747 747 746 745 745 744 743 742 741 739 738 736 734 733 732 730 728 726 723 720 718 715 711 707 702 697 691 687 681 676 671 666 661 655 651 648 646 643 641 640 638 636 636 637 641 644 647 650 655 658 661 664 668 671 675 680 684 687 691 695 699 701 703 706 710 714
725 726 725 724 724 724 724 726 728 730 733 735 737 740 741 742 744 745 745 746 745 744 744 744 743 742 742 740 739 737 735 734 732 731 729 727 725 723 720 717 714 710 707 703 698 693 688 682 676 672 668 663 657 652 649 646 643 642 641 640 638 636 636 639 642 645 649 654 658 662 665 669 672 676 679 683 686 691 696 700 703 706 708 711 715
725 725 724 723 723 723 724 726 728 730 733 735 737 739 740 741 743 744 744 745 744 743 743 742 742 742 742 740 738 736 735 733 731 730 729 727 724 721 719 716 713 710 706 703 698 693 688 683 678 674 668 663 658 653 649 646 644 643 643 642 641 639 639 640 642 645 649 654 658 662 666 670 673 676 679 682 686 690 695 700 704 708 712 713 715